San Luis Obispo, CA

8:44 AM PDT on August 18, 2017 (GMT -0700)
San Luis Obispo County-McChesney

Weather History for KSBP - April, 2014

Change the Weather History Date:

Monday, April 7, 2014

  Actual Average Record
Temperature  
Mean Temperature 68 °F -  
Max Temperature 84 °F 65 °F 100 °F (1989)
Min Temperature 52 °F 45 °F 34 °F (1978)
Cooling Degree Days 3    
Growing Degree Days 18 (Base 50)    
Moisture  
Dew Point 46 °F    
Average Humidity 53    
Maximum Humidity 83    
Minimum Humidity 21    
Precipitation  
Precipitation 0.00 in - - ()
Sea Level Pressure  
Sea Level Pressure 30.08 in    
Wind  
Wind Speed 2 mph (SW)    
Max Wind Speed 10 mph    
Max Gust Speed -    
Visibility 10 miles    
Events      
Averages and records for this station are not official NWS values.
T = Trace of Precipitation, MM = Missing Value Source: NWS Daily Summary

Daily Weather History Graph

Daily Weather History Graph

Search for Another Location

Airport or City:

Trip Planner

Search our weather history database for the weather conditions in past years. The results will help you decide how hot, cold, wet, or windy it might be!

Date:

Astronomy

Apr. 07, 2014 Rise Set
Actual Time 6:40 AM PDT 7:28 PM PDT
Civil Twilight 6:15 AM PDT 7:54 PM PDT
Nautical Twilight 5:44 AM PDT 8:25 PM PDT
Astronomical Twilight 5:13 AM PDT 8:56 PM PDT
Moon 12:47 PM PDT (4/7) 2:03 AM PDT (4/7)
Length of Visible Light 13h 39m
Length of Day
12h 48m
First Quarter, 54% of the Moon is Illuminated
Apr 7
First Quarter
Apr 15
Full
Apr 22
Last Quarter
Apr 28
New
May 6
First Quarter

Hourly Weather History & Observations

Time (PDT) Temp. Dew Point Humidity Pressure Visibility Wind Dir Wind Speed Gust Speed Precip Events Conditions
12:56 AM 53.1 °F 48.0 °F 83% 30.10 in 10.0 mi North - - N/A   Clear
1:56 AM 53.1 °F 46.9 °F 80% 30.09 in 10.0 mi Calm Calm - N/A   Clear
2:56 AM 52.0 °F 46.0 °F 80% 30.07 in 10.0 mi Calm Calm - N/A   Clear
3:56 AM 52.0 °F 46.0 °F 80% 30.06 in 10.0 mi SE 4.6 mph - N/A   Clear
4:56 AM 52.0 °F 46.0 °F 80% 30.05 in 10.0 mi ESE 3.5 mph - N/A   Clear
5:56 AM 53.1 °F 46.0 °F 77% 30.05 in 10.0 mi ESE 3.5 mph - N/A   Clear
6:56 AM 52.0 °F 45.0 °F 77% 30.06 in 10.0 mi SE 3.5 mph - N/A   Clear
7:56 AM 57.9 °F 48.9 °F 72% 30.08 in 10.0 mi Calm Calm - N/A   Clear
9:56 AM 73.9 °F 50.0 °F 43% 30.10 in 10.0 mi Calm Calm - N/A   Clear
10:56 AM 79.0 °F 48.9 °F 35% 30.10 in 10.0 mi Variable 3.5 mph - N/A   Clear
11:56 AM 82.0 °F 48.0 °F 30% 30.10 in 10.0 mi Calm Calm - N/A   Clear
12:56 PM 84.0 °F 39.9 °F 21% 30.10 in 10.0 mi West 10.4 mph - N/A   Clear
1:56 PM 82.9 °F 42.1 °F 24% 30.09 in 10.0 mi West 6.9 mph - N/A   Clear
2:56 PM 82.9 °F 41.0 °F 23% 30.08 in 10.0 mi WSW 8.1 mph - N/A   Clear
3:56 PM 82.0 °F 39.0 °F 22% 30.07 in 10.0 mi West 6.9 mph - N/A   Clear
4:56 PM 82.0 °F 37.9 °F 21% 30.07 in 10.0 mi West 6.9 mph - N/A   Clear
5:56 PM 81.0 °F 37.9 °F 21% 30.07 in 10.0 mi SW 3.5 mph - N/A   Clear
6:56 PM 71.1 °F 50.0 °F 47% 30.06 in 10.0 mi WNW 5.8 mph - N/A   Clear
7:56 PM 69.1 °F 46.0 °F 44% 30.06 in 10.0 mi Calm Calm - N/A   Clear
8:56 PM 66.9 °F 46.0 °F 47% 30.07 in 10.0 mi Calm Calm - N/A   Clear
9:56 PM 61.0 °F 46.9 °F 60% 30.08 in 10.0 mi Calm Calm - N/A   Clear
10:56 PM 59.0 °F 50.0 °F 72% 30.09 in 10.0 mi Calm Calm - N/A   Clear
11:56 PM 57.9 °F 51.1 °F 78% 30.09 in 10.0 mi Calm Calm - N/A   Clear